Latest Weather Observations for South Channel Island

IDV60901

Issued at 10:11 am EDT Wednesday 22 February 2017 (issued every 10 minutes, with the page automatically refreshed every 10 minutes)

About weather observations | Map of Melbourne area stations | Latest observations for Melbourne area | Other Formats
Station Details ID: 086344 Name: SOUTH CHANNEL ISLAND Lat: -38.31 Lon: 144.80 Height: 9.0 m
Data from the previous 72 hours. | See also: Recent months for locations in Victoria
Date/Time
EDT
Temp
°C
App
Temp
°C
Dew
Point
°C
Rel
Hum
%
Delta-T
°C
Wind Press
QNH
hPa
Press
MSL
hPa
Rain since
9am
mm
Dir  Spd
km/h
Gust
km/h
Spd
kts
Gust
kts
22/10:00am - - - - - NE 20 26 11 14 - - -
22/09:30am - - - - - NE 22 26 12 14 - - -
22/09:00am - - - - - NE 22 26 12 14 - - -
22/08:30am - - - - - NE 24 28 13 15 - - -
22/08:00am - - - - - ENE 28 30 15 16 - - -
22/07:30am - - - - - ENE 32 33 17 18 - - -
22/07:00am - - - - - ENE 30 32 16 17 - - -
22/06:30am - - - - - ENE 28 33 15 18 - - -
22/06:00am - - - - - ENE 28 32 15 17 - - -
22/05:30am - - - - - ENE 28 32 15 17 - - -
22/05:00am - - - - - ENE 32 33 17 18 - - -
22/04:30am - - - - - ENE 33 37 18 20 - - -
22/04:00am - - - - - ENE 33 37 18 20 - - -
22/03:30am - - - - - ENE 35 39 19 21 - - -
22/03:00am - - - - - ENE 37 41 20 22 - - -
22/02:30am - - - - - ENE 39 43 21 23 - - -
22/02:00am - - - - - ENE 41 46 22 25 - - -
22/01:30am - - - - - E 43 48 23 26 - - -
22/01:00am - - - - - E 41 46 22 25 - - -
22/12:30am - - - - - E 41 46 22 25 - - -
22/12:00am - - - - - E 41 48 22 26 - - -
 
Date/Time
EDT
Temp
°C
App
Temp
°C
Dew
Point
°C
Rel
Hum
%
Delta-T
°C
Wind Press
QNH
hPa
Press
MSL
hPa
Rain since
9am
mm
Dir  Spd
km/h
Gust
km/h
Spd
kts
Gust
kts
21/11:30pm - - - - - E 37 41 20 22 - - -
21/11:00pm - - - - - E 32 37 17 20 - - -
21/10:30pm - - - - - E 24 32 13 17 - - -
21/10:00pm - - - - - ESE 11 15 6 8 - - -
21/09:30pm - - - - - SE 26 30 14 16 - - -
21/09:00pm - - - - - SE 28 32 15 17 - - -
21/08:30pm - - - - - SE 28 32 15 17 - - -
21/08:00pm - - - - - SE 28 32 15 17 - - -
21/07:30pm - - - - - SE 28 30 15 16 - - -
21/07:00pm - - - - - ESE 15 24 8 13 - - -
21/06:30pm - - - - - SE 11 13 6 7 - - -
21/06:00pm - - - - - SSE 11 13 6 7 - - -
21/05:30pm - - - - - SSE 9 11 5 6 - - -
21/05:00pm - - - - - ESE 9 11 5 6 - - -
21/04:30pm - - - - - ESE 7 9 4 5 - - -
21/04:00pm - - - - - SE 7 9 4 5 - - -
21/03:30pm - - - - - N 6 9 3 5 - - -
21/03:00pm - - - - - NNW 9 9 5 5 - - -
21/02:30pm - - - - - WNW 7 9 4 5 - - -
21/02:00pm - - - - - NNW 6 7 3 4 - - -
21/01:30pm - - - - - SW 6 7 3 4 - - -
21/01:00pm - - - - - SW 7 9 4 5 - - -
21/12:30pm - - - - - WSW 13 15 7 8 - - -
21/12:00pm - - - - - WSW 13 19 7 10 - - -
21/11:30am - - - - - SW 13 19 7 10 - - -
21/11:00am - - - - - WSW 17 20 9 11 - - -
21/10:30am - - - - - WSW 17 24 9 13 - - -
21/10:00am - - - - - WNW 17 19 9 10 - - -
21/09:30am - - - - - WNW 15 17 8 9 - - -
21/09:00am - - - - - W 17 20 9 11 - - -
21/08:30am - - - - - WNW 20 24 11 13 - - -
21/08:00am - - - - - WNW 22 26 12 14 - - -
21/07:30am - - - - - W 22 24 12 13 - - -
21/07:00am - - - - - WNW 26 28 14 15 - - -
21/06:30am - - - - - WNW 26 28 14 15 - - -
21/06:00am - - - - - W 28 30 15 16 - - -
21/05:30am - - - - - WNW 26 28 14 15 - - -
21/05:00am - - - - - W 26 28 14 15 - - -
21/04:30am - - - - - W 26 30 14 16 - - -
21/04:00am - - - - - W 28 32 15 17 - - -
21/03:30am - - - - - WNW 28 32 15 17 - - -
21/03:00am - - - - - W 28 32 15 17 - - -
21/02:30am - - - - - W 28 30 15 16 - - -
21/02:00am - - - - - W 30 33 16 18 - - -
21/01:30am - - - - - W 30 33 16 18 - - -
21/01:00am - - - - - W 32 35 17 19 - - -
21/12:30am - - - - - W 32 35 17 19 - - -
21/12:00am - - - - - W 32 37 17 20 - - -
 
Date/Time
EDT
Temp
°C
App
Temp
°C
Dew
Point
°C
Rel
Hum
%
Delta-T
°C
Wind Press
QNH
hPa
Press
MSL
hPa
Rain since
9am
mm
Dir  Spd
km/h
Gust
km/h
Spd
kts
Gust
kts
20/11:30pm - - - - - WSW 33 41 18 22 - - -
20/11:00pm - - - - - WSW 37 48 20 26 - - -
20/10:30pm - - - - - WSW 37 46 20 25 - - -
20/10:00pm - - - - - WSW 43 50 23 27 - - -
20/09:30pm - - - - - WSW 41 50 22 27 - - -
20/09:00pm - - - - - WSW 46 54 25 29 - - -
20/08:30pm - - - - - SW 52 59 28 32 - - -
20/08:00pm - - - - - SW 52 59 28 32 - - -
20/07:30pm - - - - - SW 50 57 27 31 - - -
20/07:00pm - - - - - SW 50 56 27 30 - - -
20/06:30pm - - - - - SW 54 65 29 35 - - -
20/06:00pm - - - - - SW 50 61 27 33 - - -
20/05:30pm - - - - - SW 54 63 29 34 - - -
20/05:00pm - - - - - SW 52 59 28 32 - - -
20/04:30pm - - - - - SW 56 67 30 36 - - -
20/04:00pm - - - - - SW 56 67 30 36 - - -
20/03:30pm - - - - - SW 56 70 30 38 - - -
20/03:00pm - - - - - SW 56 63 30 34 - - -
20/02:30pm - - - - - SW 52 61 28 33 - - -
20/02:00pm - - - - - SW 48 59 26 32 - - -
20/01:30pm - - - - - SW 54 63 29 34 - - -
20/01:00pm - - - - - WSW 52 61 28 33 - - -
20/12:30pm - - - - - WSW 52 61 28 33 - - -
20/12:00pm - - - - - WSW 52 61 28 33 - - -
20/11:30am - - - - - SW 48 57 26 31 - - -
20/11:10am - - - - - WSW 41 59 22 32 - - -
20/11:00am - - - - - WSW 28 35 15 19 - - -
20/10:44am - - - - - WSW 41 57 22 31 - - -
20/10:30am - - - - - W 41 52 22 28 - - -
20/10:00am - - - - - WNW 37 48 20 26 - - -
20/09:30am - - - - - WSW 32 46 17 25 - - -
20/09:28am - - - - - WSW 30 44 16 24 - - -
20/09:22am - - - - - WSW 35 46 19 25 - - -
20/09:00am - - - - - WSW 41 50 22 27 - - -
20/08:30am - - - - - W 41 48 22 26 - - -
20/08:00am - - - - - WSW 39 50 21 27 - - -
20/07:58am - - - - - SW 39 50 21 27 - - -
20/07:54am - - - - - WSW 37 48 20 26 - - -
20/07:30am - - - - - WSW 39 50 21 27 - - -
20/07:29am - - - - - W 39 50 21 27 - - -
20/07:00am - - - - - WNW 33 46 18 25 - - -
20/06:30am - - - - - W 39 48 21 26 - - -
20/06:00am - - - - - WSW 46 59 25 32 - - -
20/05:41am - - - - - SW 28 50 15 27 - - -
20/05:34am - - - - - WSW 35 44 19 24 - - -
20/05:30am - - - - - WSW 39 48 21 26 - - -
20/05:17am - - - - - W 33 41 18 22 - - -
20/05:00am - - - - - WSW 44 52 24 28 - - -
20/04:34am - - - - - W 43 52 23 28 - - -
20/04:30am - - - - - WNW 43 50 23 27 - - -
20/04:00am - - - - - WNW 46 56 25 30 - - -
20/03:30am - - - - - W 39 48 21 26 - - -
20/03:00am - - - - - WNW 39 50 21 27 - - -
20/02:34am - - - - - W 32 50 17 27 - - -
20/02:30am - - - - - WSW 33 46 18 25 - - -
20/02:19am - - - - - W 52 70 28 38 - - -
20/02:10am - - - - - WNW 41 56 22 30 - - -
20/02:00am - - - - - NW 37 48 20 26 - - -
20/01:30am - - - - - WNW 35 43 19 23 - - -
20/01:00am - - - - - W 50 59 27 32 - - -
20/12:30am - - - - - W 35 44 19 24 - - -
20/12:22am - - - - - W 39 57 21 31 - - -
20/12:00am - - - - - WNW 39 48 21 26 - - -
 
Date/Time
EDT
Temp
°C
App
Temp
°C
Dew
Point
°C
Rel
Hum
%
Delta-T
°C
Wind Press
QNH
hPa
Press
MSL
hPa
Rain since
9am
mm
Dir  Spd
km/h
Gust
km/h
Spd
kts
Gust
kts
19/11:30pm - - - - - WNW 35 46 19 25 - - -
19/11:00pm - - - - - W 44 52 24 28 - - -
19/10:30pm - - - - - W 32 43 17 23 - - -
19/10:16pm - - - - - W 41 59 22 32 - - -
19/10:00pm - - - - - W 54 65 29 35 - - -
19/09:30pm - - - - - WNW 39 50 21 27 - - -
19/09:29pm - - - - - WNW 39 50 21 27 - - -
19/09:05pm - - - - - WSW 33 52 18 28 - - -
19/09:00pm - - - - - W 43 52 23 28 - - -
19/08:56pm - - - - - W 43 54 23 29 - - -
19/08:45pm - - - - - WNW 33 57 18 31 - - -
19/08:30pm - - - - - WNW 30 35 16 19 - - -
19/08:00pm - - - - - WSW 39 61 21 33 - - -
19/07:59pm - - - - - WSW 41 61 22 33 - - -
19/07:30pm - - - - - W 43 57 23 31 - - -
19/07:00pm - - - - - WSW 39 50 21 27 - - -
19/06:30pm - - - - - WSW 37 44 20 24 - - -
19/06:00pm - - - - - SW 48 57 26 31 - - -
19/05:30pm - - - - - WSW 46 54 25 29 - - -
19/05:00pm - - - - - WSW 46 59 25 32 - - -
19/04:30pm - - - - - WSW 50 70 27 38 - - -
19/04:26pm - - - - - SW 48 70 26 38 - - -
19/04:21pm - - - - - SW 39 65 21 35 - - -
19/04:15pm - - - - - WSW 20 46 11 25 - - -
19/04:00pm - - - - - NW 15 22 8 12 - - -
19/03:30pm - - - - - W 22 32 12 17 - - -
19/03:00pm - - - - - WSW 28 35 15 19 - - -
19/02:30pm - - - - - WSW 33 43 18 23 - - -
19/02:21pm - - - - - WSW 43 61 23 33 - - -
19/02:15pm - - - - - W 43 61 23 33 - - -
19/02:13pm - - - - - WNW 37 54 20 29 - - -
19/02:00pm - - - - - NW 22 33 12 18 - - -
19/01:30pm - - - - - NW 30 33 16 18 - - -
19/01:02pm - - - - - WNW 35 57 19 31 - - -
19/01:00pm - - - - - WNW 32 41 17 22 - - -
19/12:30pm - - - - - WNW 35 46 19 25 - - -
19/12:00pm - - - - - WNW 37 44 20 24 - - -
19/11:30am - - - - - WNW 39 48 21 26 - - -
19/11:00am - - - - - WNW 41 48 22 26 - - -
19/10:30am - - - - - WNW 43 50 23 27 - - -

Latest Capital City Observations: Canberra | Sydney | Melbourne | Brisbane | Adelaide | Perth | Hobart | Darwin

Other Formats:

Comma delimited format used in spreadsheet applications
http://www.bom.gov.au/fwo/IDV60901/IDV60901.94853.axf

JavaScript Object Notation format (JSON) in row-major order
http://www.bom.gov.au/fwo/IDV60901/IDV60901.94853.json